C/2019 E3 ( ATLAS )

Japanese version
Home page
Updated on August 31, 2019

---------------------------------------------------------------------

* Profile

Discovery Date March 5, 2019
Magnitude 18.4 mag
Discoverer Asteroid Terrestrial-Impact Last Alert System (ATLAS) search program

* Orbital Elements

Epoch 2023 Dec. 2.0 TT = JDT 2460280.5
T 2023 Nov. 15.50392 TT                                 Williams
q  10.2841887            (2000.0)            P               Q
z  -0.0002173      Peri.  280.89991     +0.16262242     +0.96173792
 +/-0.0001257      Node   347.19710     +0.26230153     -0.25755833
e   1.0022350      Incl.   84.25812     -0.95118445     +0.09340166
From 52 observations 2019 Mar. 1-May 21, mean residual 0".3.

* Magnitudes Graph

        m1 = 2.5 + 5 log d + 10.0 log r

---------------------------------------------------------------------

The orbital elements are published on M.P.E.C. 2019-Q135.
The magnitudes graphs are made with Comet for Windows.

---------------------------------------------------------------------

Copyright(C) Seiichi Yoshida (comet@aerith.net). All rights reserved.